CW3999 Weather Reports


Display with metric or nautical units.
time (UTC)temp
F
wind
direction
speed
MPH
gust
MPH
rain 1hr
in
rain 24hr
in
rain mn
in
humidity
%
barometer
mb
20260509065423 56 292 0.0 0.0 0.00 0.00 0.00 10 1021.0
20260509064924 56 292 0.0 0.0 0.00 0.00 0.00 15 1020.9
20260509064422 56 292 0.0 0.0 0.00 0.00 0.00 18 1020.9
20260509063923 56 292 0.0 0.0 0.00 0.00 0.00 22 1020.9
20260509063422 56 292 0.0 0.0 0.00 0.00 0.00 26 1021.0
20260509062921 57 292 0.0 0.0 0.00 0.00 0.00 29 1021.0
20260509062423 57 292 0.0 0.0 0.00 0.00 0.00 31 1020.9
20260509061422 58 292 0.0 0.0 0.00 0.00 0.00 35 1020.9
20260509060919 58 292 0.0 0.0 0.00 0.00 0.00 35 1020.8
20260509060406 58 292 0.0 0.0 0.00 0.00 0.00 36 1020.8
20260509055402 58 292 0.0 0.0 0.00 0.00 0.00 36 1020.7
20260509053900 59 292 0.0 0.0 0.00 0.00 0.00 41 1020.7
20260509053403 59 292 0.0 0.0 0.00 0.00 0.00 42 1020.7
20260509052403 59 292 0.0 0.0 0.00 0.00 0.00 44 1020.6
20260509051903 59 292 0.0 0.0 0.00 0.00 0.00 45 1020.5
20260509051404 60 292 0.0 0.0 0.00 0.00 0.00 46 1020.5
20260509050904 60 292 0.0 0.0 0.00 0.00 0.00 47 1020.5
20260509050404 60 292 0.0 0.0 0.00 0.00 0.00 48 1020.4
20260509044901 60 292 0.0 0.0 0.00 0.00 0.00 50 1020.4
20260509044401 61 292 0.0 0.0 0.00 0.00 0.00 50 1020.3
20260509043902 61 292 0.0 0.0 0.00 0.00 0.00 51 1020.2
20260509043402 61 292 0.0 0.0 0.00 0.00 0.00 52 1020.1
20260509042902 61 292 1.0 7.0 0.00 0.00 0.00 52 1020.1
20260509042402 61 292 3.0 8.0 0.00 0.00 0.00 53 1020.0
20260509041401 62 292 2.0 9.0 0.00 0.00 0.00 54 1020.0
20260509040904 62 290 0.0 4.0 0.00 0.00 0.00 54 1019.9
20260509040404 62 290 2.0 8.0 0.00 0.00 0.00 54 1019.9
20260509035903 62 290 3.0 8.0 0.00 0.00 0.00 55 1019.8
20260509035402 62 290 3.0 7.0 0.00 0.00 0.00 55 1019.8
20260509034902 62 290 1.0 7.0 0.00 0.00 0.00 55 1019.8
20260509034402 62 290 0.0 3.0 0.00 0.00 0.00 56 1019.8
20260509033402 62 290 0.0 0.0 0.00 0.00 0.00 56 1019.7
20260509032902 63 290 0.0 0.0 0.00 0.00 0.00 56 1019.7
20260509032404 63 290 0.0 0.0 0.00 0.00 0.00 56 1019.6
20260509031904 63 290 0.0 0.0 0.00 0.00 0.00 56 1019.6
20260509031402 63 290 0.0 0.0 0.00 0.00 0.00 56 1019.6
20260509030901 63 290 0.0 0.0 0.00 0.00 0.00 56 1019.5
20260509030401 64 290 0.0 0.0 0.00 0.00 0.00 56 1019.4
20260509025904 64 290 0.0 0.0 0.00 0.00 0.00 56 1019.4
20260509025403 64 290 0.0 0.0 0.00 0.00 0.00 56 1019.4
20260509024859 64 290 0.0 0.0 0.00 0.00 0.00 56 1019.4
20260509024331 65 290 0.0 0.0 0.00 0.00 0.00 56 1019.4
20260509023830 65 290 0.0 0.0 0.00 0.00 0.00 56 1019.3
20260509023331 65 290 0.0 0.0 0.00 0.00 0.00 56 1019.3
20260509022829 65 290 0.0 0.0 0.00 0.00 0.00 55 1019.2
20260509021830 66 290 0.0 0.0 0.00 0.00 0.00 55 1019.2
20260509020830 66 290 0.0 0.0 0.00 0.00 0.00 55 1019.2
20260509020330 66 290 0.0 0.0 0.00 0.00 0.00 54 1019.2
20260509015323 66 290 0.0 0.0 0.00 0.00 0.00 54 1019.2
20260509014815 66 290 0.0 0.0 0.00 0.00 0.00 54 1019.2
20260509014307 67 290 0.0 0.0 0.00 0.00 0.00 55 1019.2
20260509013804 67 290 0.0 0.0 0.00 0.00 0.00 55 1019.2
20260509012804 67 290 0.0 0.0 0.00 0.00 0.00 54 1019.2
20260509011802 67 290 0.0 0.0 0.00 0.00 0.00 53 1019.3
20260509011305 67 290 0.0 0.0 0.00 0.00 0.00 52 1019.4
20260509010803 68 290 0.0 0.0 0.00 0.00 0.00 52 1019.4
20260509010302 69 290 0.0 0.0 0.00 0.00 0.00 51 1019.5
20260509005306 69 290 0.0 0.0 0.00 0.00 0.00 51 1019.4
20260509004804 69 290 0.0 0.0 0.00 0.00 0.00 51 1019.4
20260509004304 69 290 0.0 0.0 0.00 0.00 0.00 50 1019.4
20260509003801 69 290 0.0 0.0 0.00 0.00 0.00 50 1019.4
20260509003301 70 290 0.0 0.0 0.00 0.00 0.00 50 1019.4
20260509002803 70 290 0.0 0.0 0.00 0.00 0.00 50 1019.4
20260509002306 70 290 0.0 0.0 0.00 0.00 0.00 50 1019.4
20260509001801 70 290 0.0 0.0 0.00 0.00 0.00 50 1019.4
20260509001302 70 290 0.0 0.0 0.00 0.00 0.00 49 1019.4
20260509000757 70 290 0.0 0.0 0.00 0.00 0.00 49 1019.5
20260509000258 71 290 0.0 0.0 0.00 0.00 0.00 48 1019.4
20260508235259 71 290 0.0 0.0 0.00 0.00 0.00 49 1019.6
20260508234751 70 290 0.0 0.0 0.00 0.00 0.00 51 1019.6
20260508234236 70 290 0.0 0.0 0.00 0.00 0.00 50 1019.7
20260508233730 70 290 0.0 0.0 0.00 0.00 0.00 49 1019.7
20260508233230 70 290 0.0 0.0 0.00 0.00 0.00 48 1019.7
20260508232731 70 290 0.0 0.0 0.00 0.00 0.00 48 1019.7
20260508232231 70 290 0.0 0.0 0.00 0.00 0.00 50 1019.7
20260508231731 69 290 0.0 0.0 0.00 0.00 0.00 51 1019.7
20260508231231 69 290 0.0 0.0 0.00 0.00 0.00 49 1019.7
20260508230731 69 290 0.0 0.0 0.00 0.00 0.00 49 1019.7
20260508225231 71 290 0.0 0.0 0.00 0.00 0.00 48 1019.7
20260508224730 70 290 0.0 0.0 0.00 0.00 0.00 51 1019.7
20260508224231 69 290 0.0 0.0 0.00 0.00 0.00 50 1019.7
20260508223726 68 290 0.0 0.0 0.00 0.00 0.00 49 1019.7
20260508223223 68 290 0.0 0.0 0.00 0.00 0.00 50 1019.7
20260508222223 68 290 0.0 0.0 0.00 0.00 0.00 50 1019.8
20260508221722 68 290 0.0 0.0 0.00 0.00 0.00 52 1019.9
20260508221223 68 290 0.0 0.0 0.00 0.00 0.00 51 1019.8
20260508220718 68 290 0.0 0.0 0.00 0.00 0.00 49 1019.9
20260508220219 69 290 0.0 0.0 0.00 0.00 0.00 52 1019.9
20260508215218 68 290 0.0 0.0 0.00 0.00 0.00 53 1019.9
20260508214719 67 290 0.0 0.0 0.00 0.00 0.00 52 1019.9
20260508214215 67 290 0.0 0.0 0.00 0.00 0.00 50 1019.9
20260508213704 68 290 0.0 0.0 0.00 0.00 0.00 52 1019.9
20260508213203 68 290 0.0 0.0 0.00 0.00 0.00 53 1019.9
20260508212704 68 290 0.0 0.0 0.00 0.00 0.00 53 1019.9
20260508212203 68 290 0.0 0.0 0.00 0.00 0.00 51 1019.9
20260508211703 68 290 0.0 0.0 0.00 0.00 0.00 52 1020.0
20260508211204 68 290 0.0 0.0 0.00 0.00 0.00 53 1020.0
20260508210703 66 290 0.0 0.0 0.00 0.00 0.00 55 1020.0
20260508210203 65 290 0.0 0.0 0.00 0.00 0.00 54 1020.0
20260508205702 66 290 0.0 0.0 0.00 0.00 0.00 54 1020.0
20260508205209 65 290 0.0 0.0 0.00 0.00 0.00 53 1020.0
20260508204702 66 290 0.0 0.0 0.00 0.00 0.00 54 1020.0
20260508203704 67 290 0.0 0.0 0.00 0.00 0.00 52 1020.0
20260508203201 67 290 0.0 0.0 0.00 0.00 0.00 50 1020.0
20260508202703 67 290 0.0 0.0 0.00 0.00 0.00 52 1020.0
20260508202203 67 290 0.0 0.0 0.00 0.00 0.00 54 1020.1
20260508201703 67 290 0.0 0.0 0.00 0.00 0.00 55 1020.1
20260508200702 65 290 0.0 0.0 0.00 0.00 0.00 53 1020.2
20260508200202 65 290 0.0 0.0 0.00 0.00 0.00 55 1020.2
20260508195703 64 290 0.0 0.0 0.00 0.00 0.00 55 1020.2
20260508195202 63 290 0.0 0.0 0.00 0.00 0.00 55 1020.2
20260508194704 62 290 0.0 0.0 0.00 0.00 0.00 55 1020.2
20260508194204 62 290 0.0 0.0 0.00 0.00 0.00 55 1020.3
20260508193201 62 290 0.0 0.0 0.00 0.00 0.00 55 1020.3
20260508192203 62 290 0.0 0.0 0.00 0.00 0.00 55 1020.4
20260508191702 63 290 0.0 0.0 0.00 0.00 0.00 55 1020.3
20260508190659 64 290 0.0 0.0 0.00 0.00 0.00 54 1020.3
20260508190155 64 295 0.0 0.0 0.00 0.00 0.00 54 1020.2
20260508185654 64 301 0.0 0.0 0.00 0.00 0.00 55 1020.3
20260508185151 63 301 0.0 0.0 0.00 0.00 0.00 55 1020.4
20260508184650 62 302 0.0 0.0 0.00 0.00 0.00 55 1020.4
20260508184147 62 302 0.0 0.0 0.00 0.00 0.00 55 1020.5
20260508183643 62 302 0.0 0.0 0.00 0.00 0.00 54 1020.5
20260508183143 61 302 0.0 0.0 0.00 0.00 0.00 53 1020.5
20260508182642 59 302 0.0 0.0 0.00 0.00 0.00 55 1020.5
20260508182129 59 302 0.0 0.0 0.00 0.00 0.00 54 1020.5
20260508181631 58 302 0.0 0.0 0.00 0.00 0.00 54 1020.4
20260508181131 58 302 0.0 0.0 0.00 0.00 0.00 51 1020.4
20260508180630 57 302 0.0 0.0 0.00 0.00 0.00 55 1020.4
20260508180130 57 302 0.0 0.0 0.00 0.00 0.00 52 1020.4
20260508175630 57 302 0.0 0.0 0.00 0.00 0.00 51 1020.4
20260508175118 57 302 0.0 0.0 0.00 0.00 0.00 51 1020.3
20260508174619 57 302 0.0 0.0 0.00 0.00 0.00 53 1020.3
20260508174119 57 302 0.0 0.0 0.00 0.00 0.00 52 1020.2
20260508173619 57 302 0.0 0.0 0.00 0.00 0.00 52 1020.1
20260508173114 56 302 0.0 0.0 0.00 0.00 0.00 52 1020.1
20260508172615 57 302 0.0 0.0 0.00 0.00 0.00 53 1020.1
20260508171604 57 302 0.0 0.0 0.00 0.00 0.00 45 1020.0
20260508171104 57 302 0.0 0.0 0.00 0.00 0.00 46 1020.0
20260508170602 57 302 0.0 0.0 0.00 0.00 0.00 43 1020.0
20260508165601 57 302 0.0 0.0 0.00 0.00 0.00 43 1019.9
20260508165103 57 302 0.0 0.0 0.00 0.00 0.00 41 1019.9
20260508163602 56 302 0.0 0.0 0.00 0.00 0.00 35 1019.8
20260508163103 56 302 0.0 0.0 0.00 0.00 0.00 34 1019.6
20260508162047 55 302 0.0 0.0 0.00 0.00 0.00 36 1019.4
20260508161539 55 302 0.0 0.0 0.00 0.00 0.00 31 1019.5
20260508161038 55 302 0.0 0.0 0.00 0.00 0.00 22 1019.5
20260508155530 55 302 0.0 0.0 0.00 0.00 0.00 14 1019.6
20260508155030 55 302 0.0 0.0 0.00 0.00 0.00 6 1019.4
20260508154530 54 302 0.0 0.0 0.00 0.00 0.00 100 1019.4
20260508153530 54 302 0.0 0.0 0.00 0.00 0.00 100 1019.3
20260508153029 53 302 0.0 0.0 0.00 0.00 0.00 100 1019.2
20260508152030 52 302 0.0 0.0 0.00 0.00 0.00 100 1019.2
20260508151018 51 302 0.0 0.0 0.00 0.00 0.00 100 1019.1
20260508150015 51 302 0.0 0.0 0.00 0.00 0.00 100 1019.1
20260508145507 50 302 0.0 0.0 0.00 0.00 0.00 100 1019.2
20260508144504 50 302 0.0 0.0 0.00 0.00 0.00 100 1019.2
20260508144003 49 302 0.0 0.0 0.00 0.00 0.00 100 1019.3
20260508143504 49 302 0.0 0.0 0.00 0.00 0.00 100 1019.2
20260508142001 49 302 0.0 0.0 0.00 0.00 0.00 100 1019.3
20260508140502 49 302 0.0 0.0 0.00 0.00 0.00 100 1019.2
20260508140005 49 302 0.0 0.0 0.00 0.00 0.00 100 1019.1
20260508135003 48 302 0.0 0.0 0.00 0.00 0.00 100 1018.7
20260508134451 48 302 0.0 0.0 0.00 0.00 0.00 100 1018.6
20260508133931 48 302 0.0 0.0 0.00 0.00 0.00 100 1018.6
20260508132930 48 302 0.0 0.0 0.00 0.00 0.00 100 1018.3
20260508132430 48 302 0.0 0.0 0.00 0.00 0.00 100 1018.3
20260508131930 48 302 0.0 0.0 0.00 0.00 0.00 100 1018.3
20260508130926 48 302 0.0 0.0 0.00 0.00 0.00 100 1018.0
20260508130426 48 302 0.0 0.0 0.00 0.00 0.00 100 1017.9
20260508125911 48 302 0.0 0.0 0.00 0.00 0.00 100 1017.8
20260508125411 48 302 0.0 0.0 0.00 0.00 0.00 100 1017.6
20260508124911 48 302 0.0 0.0 0.00 0.00 0.00 100 1017.5
20260508124407 49 302 0.0 0.0 0.00 0.00 0.00 100 1017.5
20260508123403 49 302 0.0 0.0 0.00 0.00 0.00 100 1017.3
20260508122402 49 302 0.0 0.0 0.00 0.00 0.00 100 1017.3
20260508121901 49 302 0.0 0.0 0.00 0.00 0.00 100 1017.3
20260508121402 49 302 0.0 0.0 0.00 0.00 0.00 100 1017.0
20260508120402 49 302 0.0 0.0 0.00 0.00 0.00 100 1017.1
20260508114902 49 302 0.0 0.0 0.00 0.00 0.00 100 1017.0
20260508113402 49 302 0.0 0.0 0.00 0.00 0.00 100 1016.8
20260508112902 49 302 0.0 0.0 0.00 0.00 0.00 100 1016.7
20260508112404 49 302 0.0 0.0 0.00 0.00 0.00 100 1016.7
20260508111903 49 302 0.0 0.0 0.00 0.00 0.00 100 1016.6
20260508110903 49 302 0.0 0.0 0.00 0.00 0.00 100 1016.3
20260508110403 49 302 0.0 0.0 0.00 0.00 0.00 100 1016.3
20260508105904 49 302 0.0 0.0 0.00 0.00 0.00 100 1016.2
20260508105404 49 302 0.0 0.0 0.00 0.00 0.00 100 1016.1
20260508104903 49 302 0.0 0.0 0.00 0.00 0.00 100 1016.1
20260508103338 50 302 0.0 0.0 0.00 0.00 0.00 100 1016.0
20260508102330 50 302 0.0 0.0 0.00 0.00 0.00 100 1016.0
20260508101831 50 302 0.0 0.0 0.00 0.00 0.00 100 1015.9
20260508101332 50 302 0.0 0.0 0.00 0.00 0.00 100 1015.9
20260508100330 50 302 0.0 0.0 0.00 0.00 0.00 100 1015.8
20260508095832 50 302 0.0 0.0 0.00 0.00 0.00 100 1015.8
20260508094822 50 302 0.0 0.0 0.00 0.00 0.00 100 1015.8
20260508093817 50 302 0.0 0.0 0.00 0.00 0.00 100 1015.6
20260508093319 50 302 0.0 0.0 0.00 0.00 0.00 100 1015.5
20260508092819 50 302 0.0 0.0 0.00 0.00 0.00 100 1015.5
20260508092312 51 302 0.0 0.0 0.00 0.00 0.00 100 1015.4
20260508091302 51 302 0.0 0.0 0.00 0.00 0.00 100 1015.4
20260508090302 51 302 0.0 0.0 0.00 0.00 0.00 100 1015.4
20260508085801 51 302 0.0 0.0 0.00 0.00 0.00 100 1015.3
20260508085307 51 302 0.0 0.0 0.00 0.00 0.00 100 1015.3
20260508084803 51 302 0.0 0.0 0.00 0.00 0.00 100 1015.3
20260508084303 51 302 0.0 0.0 0.00 0.00 0.00 100 1015.2
20260508083803 52 302 0.0 0.0 0.00 0.00 0.00 100 1015.2
20260508083303 52 302 0.0 0.0 0.00 0.00 0.00 100 1015.2
20260508082806 52 302 0.0 0.0 0.00 0.00 0.00 100 1015.1
20260508081303 52 302 0.0 0.0 0.00 0.00 0.00 100 1015.1
20260508080806 53 302 0.0 0.0 0.00 0.00 0.00 100 1015.1
20260508080304 53 302 0.0 0.0 0.00 0.00 0.00 100 1015.1
20260508075802 53 302 0.0 0.0 0.00 0.00 0.00 3 1015.1
20260508074804 53 302 0.0 0.0 0.00 0.00 0.00 8 1015.0
20260508073303 54 302 0.0 0.0 0.00 0.00 0.00 13 1015.0
20260508072803 54 302 0.0 0.0 0.00 0.00 0.00 18 1014.9
20260508072307 55 302 0.0 0.0 0.00 0.00 0.00 22 1015.0
20260508071804 55 302 0.0 0.0 0.00 0.00 0.00 24 1014.9
20260508071303 55 302 0.0 0.0 0.00 0.00 0.00 28 1015.0
20260508070800 55 302 0.0 0.0 0.00 0.00 0.00 31 1015.0
20260508070303 55 302 0.0 0.0 0.00 0.00 0.00 33 1014.9
20260508065801 56 302 0.0 0.0 0.00 0.00 0.00 38 1014.9